Showing default

LEGION 3, 60452

Orbit data source: Space-Track

LEGION 3, 60452 is a payload satellite owned by Maxar Intel (US) in LEO that was launched on Thu, 15 Aug 2024 UTC via an FALCON 9 launch vehicle from the Air Force Eastern Test Range (AFETR). Payload-class satellites include a variety of spacecraft equipped with specific instruments for various scientific and technological missions. These include communications satellites like Starlink; space stations such as the ISS; scientific satellites like the Hubble; Earth observation satellites from companies like Planet Labs, Umbra, and HawkEye 360; GPS; miniature CubeSats for education and research; and military/defense satellites.

Loading next visibility...
Identifier
60452, 2024-146A
Orbit
LEO
Country
Flag of USUS
Related business
Manufacturer
Maxar Space Inf
Mission
Operational Commercial Imaging
Bus & Motor
LEGION, Unknown motor
Mass
~700 kg wet, 630 kg dry
Launch date (UTC)
2024-08-15 (2 years ago)
Launch vehicle
FALCON 9
Launch site
Air Force Eastern Test Range (AFETR)
Object type
Payload
Rocket body
Debris
Shape & HBR
Box + 1 Pan, 1.5 m
Radar Cross Section
9.079 m², Large (>1 m²)

Expand to show TLE details & history
Last TLE update: 9 hours ago

TLE from 9 hours ago
0 LEGION 3
1 60452U 24146A   26061.82484844  .00006641  00000-0  35203-3 0  9994
2 60452  44.9995 240.7341 0013802 283.8172  76.1171 15.16051661 85889
Epoch: 2026-03-02T19:47Z
TLE epoch observation values (Epoch: 2026-03-02T19:47:46.905Z)
Latitude
0.00002°
Longitude
143.17597°
Altitude
515.515 km
Speed
7.609 km/s
True Right ascension
16h 02m 56s
True Declination
0° 00' 00"
Sunlit
Object was in daylight at epoch
Visualization orbit readout
Latitude
Unknown
Longitude
Unknown
Altitude
Unknown
Speed
Unknown
Apparent Right ascension
Unknown
Apparent Declination
Unknown
Sunlit
N/A
Visualization observer readout
Local Sidereal Time
08:38:34
Azimuth
Unknown
Elevation
Unknown
Doppler factor
Unknown
Orbital elements
Apogee altitude
528.909 km
Perigee altitude
509.869 km
Semi-major axis
6,897.526 km
Eccentricity
0.00138
Inclination
44.9995°
RAAN
240.7341°
Arg. of periapsis
283.8172°
True anomaly
76.2707°
Mean anomaly
76.1171°
Eccentric anomaly
76.19389°
Mean motion
3.78881 °/min
Orbital period
95.02 mins
BSTAR
0.00035203
Loading maneuver chart data...
Computing Atmospheric mass density...
Loading historical data...
Loading historical data...
Loading historical data...
Loading historical data...
Loading historical data...
Loading historical data...
Loading historical data...
Other satellites on launch #146 in the year 2024 (2024-08-15 UTC)

Documentation

Showing up to 5 results
|